Regional Weather Roundup
Issued by NWS Albany, NY

Home | Current Version | Previous Version | Text Only | Print | Product List | Glossary On
Versions: 1 2 3 4 5 6 7 8 9 10 11 12 13 14 15 16 17 18 19 20 21 22 23 24 25 26 27
000
ASUS41 KALY 291010
RWRALY

NEW YORK STATE HOURLY WEATHER ROUNDUP
NATIONAL WEATHER SERVICE ALBANY NY
600 AM EDT THU JUN 29 2017

NOTE: "FAIR" INDICATES FEW OR NO CLOUDS BELOW 12,000 FEET WITH NO
SIGNIFICANT WEATHER AND/OR NO OBSTRUCTIONS TO VISIBILITY.

NYZ032-033-038>043-046>054-057>066-NYZ062>081-082-084-291100-
EAST


CITY           SKY/WX    TMP DP  RH WIND       PRES   REMARKS
ALBANY         CLOUDY    62  53  72 S5        30.11R
GLENS FALLS    CLOUDY    54  52  93 CALM      30.09R
POUGHKEEPSIE   CLOUDY    60  55  83 CALM      30.12S
NEWBURGH       MOCLDY    64  54  68 CALM      30.15S
MONTGOMERY     CLOUDY    62  54  74 CALM      30.13S
WHITE PLAINS   CLOUDY    63  53  70 CALM      30.15S
ISLIP          CLOUDY    64  57  78 SW5       30.16S
NEW YORK CITY  MOCLDY    69  58  67 SW8       30.15S
CENTRAL PARK   MOCLDY    68  56  65 VRB6      30.18S
$$

NYZ005>009-017-018-044>046-055-056-291100-
CENTRAL


CITY           SKY/WX    TMP DP  RH WIND       PRES   REMARKS
FULTON         CLOUDY    63  55  75 CALM      30.06R
SYRACUSE       CLOUDY    63  55  75 SW10      30.08R
ROME           CLOUDY    60  55  83 SE3       30.09R
ELMIRA         CLOUDY    59  56  89 CALM      30.09R
BINGHAMTON     CLOUDY    60  50  69 S6        30.12R
MONTICELLO     MOCLDY    55  54  94 CALM      30.17S
$$

NYZ026>034-041>043-087-291100-
NORTH


CITY           SKY/WX    TMP DP  RH WIND       PRES   REMARKS
WATERTOWN      LGT RAIN  64  57  78 SW12G20   30.06R
FORT DRUM      NOT AVBL
OGDENSBURG     MOCLDY    59  55  85 S3        30.02F
MASSENA        CLOUDY    58  54  86 SW6       30.03R
SARANAC LAKE   MOCLDY    51  50  96 W5        30.07S
PLATTSBURGH    CLOUDY    55  53  93 CALM      30.04R
$$

NYZ001>004-010>016-019>021-085-291100-
WEST


CITY           SKY/WX    TMP DP  RH WIND       PRES   REMARKS
NIAGARA FALLS  CLOUDY    63  57  81 SE7       29.96F
BUFFALO        CLOUDY    62  56  80 S8        29.98F
DUNKIRK        CLOUDY    68  53  58 S17G23    29.98F
JAMESTOWN      CLOUDY    61  50  67 S7        30.04F
WELLSVILLE     CLOUDY    61  49  64 S7        30.11S
ROCHESTER      CLOUDY    61  57  87 S5        30.03S
PENN YAN       CLOUDY    64  52  64 SW5       30.08R
$$

             KEY
       WCI = WIND CHILL INDEX
       VSB = VISIBILITY
       HX  = HEAT INDEX
$$




USA.gov is the U.S. government's official web portal to all federal, state and local government web resources and services.